Probability
0 0 0 0 0 0 0 0 0 0 0 0 0 0 0 0 0 0 0 0 0 0 0 0 0 0 0 0 0 0 0 0 0 0 0 0 0 0
0 0 0 0 0 0 0 0 0 0 0 0 0 0 0 0 0 0 0 0 0 0 0 0 0 0 0 0 0 0 0 0 0 0 0 0 0 0
0 0 0 0 0 0 0 0 0 0 0 0 0 0 0 0 0 0 0 0 0 0 0 0 0 0 0 0 0 0 0 0 0 0 0 0 0 0
0 0 0 0 0 0 0 0 0 0 0 0 0 0 0 0 0 0 0 0 0 0 0 0 0 0 0 0 0 0 0 0 0 0 0 0 0 0
0 0 0 0 0 0 0 0 0 0 0 0 0 0 0 0 0 0 0 0 0 0 0 0 0 0 0 0 0 0 0 0 0 0 0 0 0 0
0 0 0 0 0 0 0 0 0 0 0 0 0 0 0 0 0 0 0 0 0 0 0 0 0 0 0 0 0 0 0 0 0 0 0 0 0 0
0 0 0 0 0 0 0 0 0 0 0 0 0 0 0 0 0 0 0 0 0 0 0 0 0 0 0 0 0 0 0 0 0 0 0 0 0 0
0 0 0 0 0 0 0 0 0 0 0 0 0 0 0 0 0 0 0 0 0 0 0 0 0 0 0 0 0 0 0 0 0 0 0 0 0 0
0 0 0 0 0 0 0 0 0 0 0 0 0 0 0 0 0 0 0 0 0 0 0 0 0 0 0 0 0 0 0 0 0 0 0 0 0 0
0 0 0 0 0 0 0 0 0 0 0 0 0 0 0 0 0 0 0 0 0 0 0 0 0 0 0 0 0 0 0 0 0 0 0 0 0 0
0 0 0 0 0 0 0 0 0 0 0 0 0 0 0 0 0 0 0 0 0 0 0 0 0 0 0 0 0 0 0 0 0 0 0 0 0 0
0 0 0 0 0 0 0 0 0 0 0 0 0 0 0 0 0 0 0 0 0 0 0 0 0 0 0 0 0 0 0 0 0 0 0 0 0 0
0 0 0 0 0 0 0 0 0 0 0 0 0 0 0 0 0 0 0 0 0 0 0 0 0 0 0 0 0 0 0 0 0 0 0 0 0 0
0 0 0 0 0 0 0 0 0 0 0 0 0 0 0 0 0 0 0 0 0 0 0 0 0 0 0 0 0 0 0 0 0 0 0 0 0 0
0 0 0 0 0 0 0 0 0 0 0 0 0 0 0 0 0 0 0 0 0 0 0 0 0 0 0 0 0 0 0 0 0 0 0 0 0 0
0 0 0 0 0 0 0 0 0 0 0 0 0 0 0 0 0 0 0 0 0 0 0 0 0 0 0 0 0 0 0 0 0 0 0 0 0 0
0 0 0 0 0 0 0 0 0 0 0 0 0 0 0 0 0 0 0 0 0 0 0 0 0 0 0 0 0 0 0 0 0 0 0 0 0 0
0 0 0 0 0 0 0 0 0 0 0 0 0 0 0 0 0 0 0 0 0 0 0 0 0 0 0 0 0 0 0 0 0 0 0 0 0 0
0 0 0 0 0 0 0 0 0 0 0 0 0 0 0 0 0 0 0 0 0 0 0 0 0 0 0 0 0 0 0 0 0 0 0 0 0 0
0 0 0 0 0 0 0 0 0 0 0 0 0 0 0 0 0 0 0 0 0 0 0 0 0 0 0 0 0 0 0 0 0 0 0 0 0 0
0 0 0 0 0 0 0 0 0 0 0 0 0 0 0 0 0 0 0 0 0 0 0 0 0 0 0 0 0 0 0 0 0 0 0 0 0 0
0 0 0 0 0 0 0 0 0 0 0 0 0 0 0 0 0 0 0 0 0 0 0 0 0 0 0 0 0 0 0 0 0 0 0 0 0 0
0 0 0 0 0 0 0 0 0 0 0 0 0 0 0 0 0 0 0 0 0 0 0 0 0 0 0 0 0 0 0 0 0 0 0 0 0 0
Height
5699 5693 5688 5681 5675 5667 5660 5654 5649 5646 5643 5634 5624 5616 5608 5602 5596 5591 5587 5585 5584 5583 5582 5583 5585 5587 5591 5594 5599 5604 5610 5615 5621 5626 5632 5638 5644 5650
5684 5678 5672 5665 5658 5650 5642 5634 5626 5621 5620 5614 5603 5595 5587 5580 5574 5569 5565 5563 5561 5560 5560 5561 5563 5567 5571 5575 5580 5586 5592 5598 5605 5611 5618 5625 5632 5639
5670 5663 5656 5649 5641 5633 5624 5616 5607 5599 5595 5592 5581 5573 5565 5559 5553 5548 5545 5543 5541 5540 5540 5542 5544 5548 5552 5556 5561 5567 5573 5580 5588 5595 5603 5611 5618 5626
5655 5648 5640 5632 5623 5615 5606 5597 5588 5579 5572 5568 5562 5553 5546 5540 5536 5532 5529 5527 5526 5525 5525 5527 5529 5532 5536 5539 5544 5549 5555 5562 5570 5578 5587 5596 5603 5611
5640 5632 5623 5615 5606 5597 5588 5579 5570 5561 5552 5547 5544 5538 5532 5526 5523 5519 5516 5515 5514 5514 5514 5515 5518 5520 5523 5526 5530 5535 5540 5547 5554 5562 5569 5578 5587 5595
5623 5616 5607 5598 5589 5580 5571 5562 5553 5546 5539 5533 5529 5525 5521 5515 5512 5509 5507 5505 5505 5505 5505 5506 5508 5510 5512 5516 5519 5523 5528 5533 5539 5545 5553 5561 5570 5579
5608 5600 5591 5581 5571 5563 5554 5547 5540 5533 5528 5523 5519 5515 5511 5507 5504 5502 5501 5499 5499 5498 5499 5499 5500 5502 5504 5506 5509 5513 5517 5521 5526 5531 5537 5544 5552 5562
5594 5584 5575 5565 5557 5549 5541 5535 5528 5522 5518 5515 5511 5507 5505 5502 5500 5498 5496 5495 5494 5493 5493 5494 5494 5496 5497 5499 5501 5504 5507 5510 5514 5518 5523 5529 5536 5545
5579 5570 5561 5553 5546 5539 5533 5526 5520 5515 5512 5509 5506 5504 5502 5499 5497 5495 5493 5492 5491 5490 5490 5490 5490 5491 5492 5493 5494 5496 5498 5500 5502 5505 5509 5515 5522 5530
5566 5558 5551 5544 5537 5531 5525 5520 5515 5512 5509 5507 5505 5503 5500 5498 5495 5493 5491 5490 5489 5488 5488 5488 5487 5488 5488 5489 5490 5491 5492 5493 5494 5496 5499 5503 5510 5517
5556 5550 5544 5538 5532 5526 5521 5517 5514 5512 5509 5507 5505 5502 5500 5497 5495 5493 5491 5490 5489 5487 5486 5486 5486 5486 5486 5486 5486 5486 5487 5487 5488 5489 5492 5495 5500 5507
5550 5544 5538 5533 5528 5524 5520 5518 5516 5513 5511 5508 5506 5503 5500 5498 5495 5493 5491 5489 5488 5486 5485 5485 5484 5484 5484 5483 5483 5483 5483 5483 5484 5485 5487 5490 5494 5500
5546 5541 5536 5532 5528 5525 5523 5520 5518 5515 5513 5510 5507 5504 5501 5498 5495 5492 5490 5487 5485 5484 5483 5482 5482 5481 5481 5480 5480 5480 5480 5480 5481 5482 5484 5487 5491 5497
5544 5540 5536 5533 5530 5528 5525 5523 5520 5517 5514 5511 5508 5505 5501 5498 5494 5491 5487 5484 5482 5480 5479 5479 5479 5479 5479 5478 5478 5478 5478 5478 5478 5480 5483 5486 5490 5496
5543 5540 5537 5535 5533 5530 5528 5525 5522 5518 5515 5512 5508 5505 5501 5497 5494 5490 5487 5484 5482 5480 5479 5478 5478 5479 5479 5478 5477 5477 5477 5477 5478 5479 5482 5486 5492 5498
5542 5540 5539 5537 5534 5532 5529 5526 5523 5520 5517 5513 5509 5506 5502 5499 5496 5493 5491 5488 5486 5484 5483 5482 5481 5480 5480 5479 5478 5477 5476 5477 5478 5479 5483 5487 5493 5500
5542 5541 5540 5539 5536 5533 5531 5528 5525 5522 5519 5515 5511 5508 5506 5504 5501 5499 5496 5494 5492 5490 5488 5487 5485 5484 5482 5481 5480 5478 5477 5477 5478 5479 5483 5488 5494 5501
5543 5543 5542 5540 5537 5535 5533 5530 5528 5525 5521 5518 5515 5513 5511 5509 5507 5505 5502 5500 5498 5496 5494 5492 5490 5488 5486 5485 5483 5481 5479 5478 5479 5480 5484 5489 5495 5502
5544 5544 5543 5541 5539 5537 5535 5533 5531 5528 5525 5522 5521 5519 5517 5515 5513 5511 5509 5507 5505 5502 5500 5498 5496 5494 5491 5490 5488 5485 5484 5482 5483 5484 5487 5491 5497 5504
5546 5546 5545 5543 5541 5540 5538 5536 5534 5531 5529 5528 5526 5525 5523 5520 5519 5517 5515 5513 5511 5509 5507 5505 5502 5500 5498 5497 5495 5493 5491 5489 5490 5492 5494 5498 5503 5509
5548 5547 5547 5545 5544 5542 5541 5539 5537 5536 5535 5534 5533 5531 5528 5526 5524 5523 5521 5519 5517 5515 5513 5511 5509 5507 5505 5504 5503 5501 5500 5498 5498 5500 5503 5507 5512 5517
5550 5550 5549 5548 5546 5545 5544 5543 5542 5541 5541 5541 5540 5538 5536 5533 5531 5530 5528 5526 5524 5522 5520 5518 5516 5514 5512 5512 5511 5510 5510 5509 5509 5510 5512 5515 5520 5525
5553 5553 5552 5550 5549 5548 5548 5547 5546 5547 5547 5547 5546 5545 5543 5542 5540 5538 5536 5534 5532 5530 5529 5527 5524 5522 5521 5520 5520 5520 5520 5520 5520 5522 5523 5524 5527 5531
Wind_Speed
58 57 58 60 62 64 66 68 70 69 68 69 71 72 73 72 70 69 69 68 68 67 66 64 62 59 58 57 55 54 53 53 52 51 49 48 47 46
58 58 60 62 64 67 69 71 72 73 71 71 73 75 75 74 72 70 68 67 66 64 63 62 61 59 58 59 58 57 56 56 56 55 54 52 51 50
59 61 63 64 66 68 69 71 72 73 73 72 73 73 73 71 67 63 58 56 54 53 52 52 52 52 54 56 57 57 58 59 59 59 59 57 55 54
60 62 64 66 67 68 69 70 72 73 74 72 67 64 60 57 54 51 48 45 42 41 41 42 42 43 45 47 50 53 56 58 60 61 61 61 59 58
60 62 63 65 66 68 69 70 71 69 67 62 56 51 47 46 43 41 37 34 32 32 33 33 34 35 36 38 41 45 49 52 56 59 61 63 63 61
59 61 62 64 66 67 67 66 63 58 53 49 45 40 38 38 35 31 27 25 24 25 26 27 28 29 30 32 34 38 42 46 49 53 58 61 63 63
58 60 61 63 65 64 60 54 49 45 42 38 33 31 30 29 26 21 20 20 20 21 21 22 22 23 25 28 31 34 37 40 43 46 51 56 60 63
57 59 59 59 57 52 46 41 38 36 31 27 24 22 21 19 18 16 15 16 16 17 16 16 17 17 20 22 25 28 30 34 37 41 45 49 55 59
55 54 52 48 43 38 34 32 30 27 22 18 16 15 15 14 13 12 11 11 11 11 10 11 11 12 14 15 16 18 20 23 28 33 39 44 48 53
48 45 41 36 32 29 26 23 20 17 14 12 11 11 11 10 9 8 8 8 8 8 7 7 8 8 9 11 12 13 14 16 18 23 29 35 42 47
40 35 31 27 24 22 18 14 12 11 10 10 9 9 8 8 7 7 7 7 7 7 6 6 7 7 7 8 10 11 12 13 15 17 21 27 34 40
32 28 25 22 20 16 13 11 10 10 10 9 9 9 8 8 7 8 8 8 8 8 8 8 9 9 10 10 11 11 12 13 14 15 17 21 27 32
24 21 20 17 14 11 10 10 10 10 11 11 11 10 10 10 10 11 11 12 12 12 12 12 12 11 11 11 11 10 11 12 13 14 15 18 22 27
17 15 13 11 10 9 9 10 11 12 13 12 12 12 13 14 14 13 12 11 9 8 7 7 7 6 6 5 5 5 6 8 10 11 12 15 20 25
11 9 8 7 7 8 10 12 13 14 14 14 14 15 15 13 11 11 9 9 8 7 7 5 3 2 1 1 2 3 4 6 8 10 12 15 20 25
5 4 5 6 7 9 11 13 14 14 14 15 16 14 13 13 14 14 14 14 14 14 13 12 10 8 7 5 3 2 4 6 8 10 13 17 21 25
2 3 4 6 9 11 12 13 14 14 15 16 15 15 15 16 16 16 16 16 16 16 16 15 14 13 11 8 7 4 3 5 8 11 15 18 22 26
2 3 5 7 10 12 12 13 13 15 16 16 16 17 17 17 17 17 17 17 17 18 18 17 17 16 15 14 11 9 8 7 9 11 15 19 23 27
4 4 6 8 11 12 12 13 13 15 16 17 18 18 18 17 17 18 18 17 17 17 17 16 17 18 18 17 15 13 13 14 15 16 17 20 23 27
6 6 7 9 11 12 12 12 13 15 17 19 19 19 18 17 17 17 17 17 17 16 16 15 15 16 18 18 17 16 18 21 22 21 21 21 24 27
7 8 9 10 11 11 12 13 14 16 18 20 21 21 21 20 19 18 17 17 16 16 15 15 14 15 16 17 18 18 20 23 25 25 24 22 23 25
9 9 10 11 12 12 13 14 16 18 19 20 22 23 23 23 23 22 21 20 20 20 20 21 21 20 19 19 20 21 23 24 25 25 25 24 23 22
11 11 11 12 13 14 15 16 17 18 19 19 21 22 24 25 25 25 25 24 24 24 24 25 27 27 26 25 24 24 25 26 26 25 24 24 24 22
Wind_Direction
294 293 293 293 294 295 295 294 292 290 288 288 288 288 287 286 285 283 281 279 277 275 272 269 265 261 258 256 252 248 244 242 241 240 239 237 235 234
295 296 296 296 296 295 294 293 292 292 291 290 289 288 287 286 285 283 281 279 276 273 270 266 263 258 255 253 250 247 244 242 240 239 238 237 235 234
295 297 297 297 296 295 295 295 295 294 293 291 290 289 288 287 286 285 282 279 275 271 267 264 260 256 252 249 247 245 243 241 240 239 238 236 236 235
297 298 297 297 297 297 296 296 295 294 293 292 292 292 291 289 287 286 283 280 274 269 264 261 258 254 251 249 246 244 242 240 239 238 237 236 235 234
298 298 298 298 298 297 296 295 295 295 295 295 295 293 290 289 288 287 284 278 272 266 262 259 257 255 252 248 245 242 241 240 238 237 235 234 234 233
300 299 299 299 298 297 296 296 297 297 297 296 296 293 291 290 289 287 283 277 270 264 261 258 257 255 251 246 242 239 239 239 239 237 235 233 233 232
301 301 300 298 297 298 299 299 299 299 298 298 298 295 292 292 293 289 282 275 270 265 262 260 258 256 251 246 243 241 241 241 240 238 236 234 232 230
303 302 300 299 300 302 303 303 303 303 303 303 302 299 298 299 298 294 286 280 275 274 271 266 263 257 253 250 247 245 245 244 241 238 235 233 231 229
304 303 303 304 305 307 308 308 308 309 312 313 311 310 310 309 307 303 299 294 289 290 285 274 269 257 253 249 247 247 246 244 241 237 233 231 228 225
307 308 309 311 312 315 317 317 318 322 326 328 328 326 324 323 321 319 317 310 304 300 290 277 272 260 251 249 248 247 248 246 242 237 232 228 224 221
313 315 318 321 326 330 334 340 345 349 349 349 348 346 344 339 333 329 324 318 311 303 286 274 271 270 266 262 260 259 258 254 247 239 231 225 220 218
319 323 328 335 342 349 359 7 12 11 8 5 1 358 354 349 342 334 326 318 308 298 287 278 275 278 279 277 275 271 264 258 251 240 230 222 216 212
323 327 334 344 355 6 16 21 21 17 11 7 3 359 355 349 340 330 320 311 302 290 281 275 273 275 279 278 274 266 258 250 244 236 226 218 209 204
327 333 342 354 6 17 23 22 17 13 9 6 1 355 349 342 337 333 329 325 318 303 283 269 261 260 265 265 258 253 246 239 233 225 214 205 197 193
331 341 357 12 20 22 19 15 12 11 9 5 360 356 357 2 11 18 27 38 51 62 75 91 115 139 159 206 222 220 217 212 206 204 198 192 187 185
341 9 26 28 22 18 15 14 14 13 10 7 7 18 38 50 53 55 58 62 66 68 73 78 80 84 87 92 101 140 186 191 190 189 187 184 183 182
22 53 40 26 19 18 18 19 20 19 17 18 33 56 66 67 65 65 63 62 65 68 70 71 72 71 68 69 68 73 120 163 176 181 181 180 179 179
100 68 36 26 23 24 26 29 28 26 28 40 61 71 74 73 68 66 66 68 70 70 69 68 65 61 58 54 53 60 79 109 134 152 166 172 174 175
112 74 45 36 33 33 36 37 35 37 48 65 74 74 73 71 67 67 69 71 70 67 64 62 60 56 54 52 54 66 82 96 110 121 136 153 164 169
108 77 55 45 39 40 45 47 49 57 71 78 77 74 71 70 69 69 69 70 67 62 59 58 56 55 57 59 62 75 89 97 102 107 116 132 149 160
102 80 62 49 44 49 58 62 68 78 85 83 80 76 74 74 75 74 73 72 68 64 61 60 61 62 66 70 74 83 92 99 103 105 109 120 137 149
98 82 65 54 54 64 72 77 84 92 94 90 85 82 81 80 80 79 78 77 75 73 71 71 72 74 80 85 88 91 94 98 103 109 114 119 127 138
96 80 67 64 67 75 81 86 95 101 100 95 89 86 85 84 82 81 80 79 79 78 77 77 77 79 84 89 92 95 97 99 101 104 111 119 126 134